Stündliche Wetter Abcha

Heute, 25 Juni, Freitag

Zeit Temperatur Niederschläge Wind Luftdruck Luftfeuchtigkeit
00:00 +28°C° 0 mm 2 m/S 643 mmHg 35%
01:00 +28°C° 0 mm 1 m/S 643 mmHg 34%
02:00 +28°C° 0 mm 1 m/S 643 mmHg 33%
03:00 +27°C° 0 mm 1 m/S 642 mmHg 32%
04:00 +27°C° 0 mm 1 m/S 642 mmHg 32%
05:00 +27°C° 0 mm 1 m/S 643 mmHg 32%
06:00 +26°C° 0 mm 1 m/S 643 mmHg 33%
07:00 +28°C° 0 mm 1 m/S 643 mmHg 31%
08:00 +30°C° 0 mm 2 m/S 644 mmHg 28%
09:00 +31°C° 0 mm 2 m/S 644 mmHg 26%
10:00 +33°C° 0 mm 3 m/S 644 mmHg 25%
11:00 +34°C° 0 mm 3 m/S 644 mmHg 24%
12:00 +35°C° 0 mm 3 m/S 644 mmHg 23%
13:00 +35°C° 0 mm 4 m/S 644 mmHg 25%
14:00 +35°C° 0 mm 5 m/S 643 mmHg 27%
15:00 +35°C° 0 mm 5 m/S 643 mmHg 29%
16:00 +34°C° 0.3 mm 4 m/S 643 mmHg 31%
17:00 +33°C° 0.3 mm 3 m/S 643 mmHg 34%
18:00 +31°C° 0.3 mm 2 m/S 643 mmHg 37%
19:00 +30°C° 0 mm 2 m/S 643 mmHg 39%
20:00 +29°C° 0 mm 1 m/S 643 mmHg 42%
21:00 +29°C° 0 mm 1 m/S 643 mmHg 44%
22:00 +29°C° 0 mm 1 m/S 643 mmHg 44%
23:00 +28°C° 0 mm 1 m/S 642 mmHg 45%

Morgen, 26 Juni, Samstag

Zeit Temperatur Niederschläge Wind Luftdruck Luftfeuchtigkeit
00:00 +28°C° 0 mm 1 m/S 642 mmHg 45%
01:00 +28°C° 0 mm 1 m/S 642 mmHg 45%
02:00 +28°C° 0 mm 1 m/S 641 mmHg 45%
03:00 +27°C° 0 mm 1 m/S 641 mmHg 44%
04:00 +27°C° 0 mm 1 m/S 641 mmHg 46%
05:00 +27°C° 0 mm 1 m/S 641 mmHg 48%
06:00 +26°C° 0 mm 1 m/S 641 mmHg 50%
07:00 +27°C° 0 mm 1 m/S 642 mmHg 45%
08:00 +29°C° 0 mm 2 m/S 642 mmHg 41%
09:00 +30°C° 0 mm 2 m/S 642 mmHg 37%
10:00 +31°C° 0 mm 2 m/S 642 mmHg 34%
11:00 +33°C° 0 mm 3 m/S 643 mmHg 32%
12:00 +34°C° 0 mm 3 m/S 643 mmHg 30%
13:00 +34°C° 0.1 mm 3 m/S 642 mmHg 31%
14:00 +34°C° 0.1 mm 3 m/S 642 mmHg 32%
15:00 +34°C° 0.1 mm 3 m/S 641 mmHg 33%
16:00 +33°C° 0.1 mm 3 m/S 641 mmHg 35%
17:00 +31°C° 0.1 mm 3 m/S 641 mmHg 36%
18:00 +31°C° 0.1 mm 3 m/S 641 mmHg 38%
19:00 +30°C° 0 mm 2 m/S 641 mmHg 39%
20:00 +29°C° 0 mm 1 m/S 641 mmHg 40%
21:00 +28°C° 0 mm 1 m/S 641 mmHg 42%
22:00 +28°C° 0 mm 1 m/S 641 mmHg 39%
23:00 +28°C° 0 mm 1 m/S 641 mmHg 37%

übermorgen, 27 Juni, Sonntag

Zeit Temperatur Niederschläge Wind Luftdruck Luftfeuchtigkeit
00:00 +28°C° 0 mm 1 m/S 641 mmHg 35%
01:00 +28°C° 0 mm 1 m/S 641 mmHg 31%
02:00 +27°C° 0 mm 1 m/S 640 mmHg 27%
03:00 +27°C° 0 mm 1 m/S 640 mmHg 23%
04:00 +27°C° 0 mm 1 m/S 640 mmHg 26%
05:00 +26°C° 0 mm 1 m/S 641 mmHg 28%
06:00 +26°C° 0 mm 1 m/S 641 mmHg 30%
07:00 +28°C° 0 mm 1 m/S 641 mmHg 29%
08:00 +30°C° 0 mm 2 m/S 642 mmHg 28%
09:00 +31°C° 0 mm 2 m/S 643 mmHg 26%
10:00 +33°C° 0 mm 3 m/S 643 mmHg 26%
11:00 +34°C° 0 mm 4 m/S 643 mmHg 25%
12:00 +35°C° 0 mm 5 m/S 643 mmHg 25%
13:00 +34°C° 0.1 mm 5 m/S 643 mmHg 29%
14:00 +34°C° 0.1 mm 4 m/S 643 mmHg 33%
15:00 +33°C° 0.1 mm 4 m/S 642 mmHg 38%
16:00 +32°C° 0.4 mm 4 m/S 642 mmHg 41%
17:00 +31°C° 0.4 mm 3 m/S 642 mmHg 45%
18:00 +30°C° 0.4 mm 3 m/S 642 mmHg 48%
19:00 +29°C° 0.2 mm 2 m/S 643 mmHg 49%
20:00 +29°C° 0.2 mm 2 m/S 643 mmHg 50%
21:00 +29°C° 0.2 mm 1 m/S 643 mmHg 50%
22:00 +29°C° 0 mm 1 m/S 643 mmHg 51%
23:00 +28°C° 0 mm 1 m/S 643 mmHg 51%

28 Juni, Montag

Zeit Temperatur Niederschläge Wind Luftdruck Luftfeuchtigkeit
00:00 +28°C° 0 mm 1 m/S 643 mmHg 52%
01:00 +26°C° 0 mm 0 m/S 642 mmHg 52%
02:00 +26°C° 0 mm 0 m/S 642 mmHg 52%
03:00 +25°C° 0 mm 0 m/S 642 mmHg 52%
04:00 +25°C° 0 mm 0 m/S 642 mmHg 52%
05:00 +25°C° 0 mm 0 m/S 642 mmHg 51%
06:00 +25°C° 0 mm 0 m/S 642 mmHg 51%
07:00 +28°C° 0 mm 1 m/S 643 mmHg 47%
08:00 +29°C° 0 mm 2 m/S 644 mmHg 44%
09:00 +30°C° 0 mm 2 m/S 644 mmHg 41%
10:00 +31°C° 0.2 mm 3 m/S 645 mmHg 39%
11:00 +31°C° 0.2 mm 3 m/S 645 mmHg 37%
12:00 +33°C° 0.2 mm 4 m/S 645 mmHg 35%
13:00 +33°C° 0.2 mm 4 m/S 645 mmHg 35%
14:00 +33°C° 0.2 mm 4 m/S 644 mmHg 35%
15:00 +34°C° 0.2 mm 5 m/S 644 mmHg 34%
16:00 +33°C° 0.2 mm 4 m/S 644 mmHg 37%
17:00 +32°C° 0.2 mm 4 m/S 644 mmHg 40%
18:00 +30°C° 0.2 mm 3 m/S 644 mmHg 43%
19:00 +29°C° 0 mm 2 m/S 644 mmHg 45%
20:00 +29°C° 0 mm 1 m/S 644 mmHg 47%
21:00 +26°C° 0 mm 0 m/S 644 mmHg 49%
22:00 +26°C° 0 mm 0 m/S 643 mmHg 49%
23:00 +26°C° 0 mm 0 m/S 643 mmHg 48%

29 Juni, Dienstag

Zeit Temperatur Niederschläge Wind Luftdruck Luftfeuchtigkeit
00:00 +26°C° 0 mm 0 m/S 643 mmHg 47%
01:00 +26°C° 0 mm 0 m/S 643 mmHg 47%
02:00 +26°C° 0 mm 0 m/S 642 mmHg 48%
03:00 +25°C° 0 mm 0 m/S 642 mmHg 48%
04:00 +25°C° 0 mm 0 m/S 642 mmHg 48%
05:00 +25°C° 0 mm 0 m/S 642 mmHg 48%
06:00 +27°C° 0 mm 1 m/S 643 mmHg 48%
07:00 +28°C° 0 mm 1 m/S 643 mmHg 43%
08:00 +30°C° 0 mm 1 m/S 644 mmHg 37%
09:00 +31°C° 0 mm 1 m/S 644 mmHg 31%
10:00 +32°C° 0 mm 2 m/S 644 mmHg 28%
11:00 +35°C° 0 mm 3 m/S 644 mmHg 26%
12:00 +36°C° 0 mm 3 m/S 644 mmHg 24%
13:00 +36°C° 0 mm 4 m/S 644 mmHg 25%
14:00 +35°C° 0 mm 4 m/S 644 mmHg 26%
15:00 +35°C° 0 mm 5 m/S 643 mmHg 27%
16:00 +34°C° 0 mm 4 m/S 643 mmHg 30%
17:00 +33°C° 0 mm 3 m/S 643 mmHg 33%
18:00 +31°C° 0 mm 3 m/S 643 mmHg 36%
19:00 +30°C° 0 mm 2 m/S 643 mmHg 38%
20:00 +30°C° 0 mm 1 m/S 643 mmHg 41%
21:00 +29°C° 0 mm 1 m/S 643 mmHg 43%
22:00 +27°C° 0 mm 0 m/S 643 mmHg 43%
23:00 +27°C° 0 mm 0 m/S 643 mmHg 43%

30 Juni, Mittwoch

Zeit Temperatur Niederschläge Wind Luftdruck Luftfeuchtigkeit
00:00 +26°C° 0 mm 0 m/S 642 mmHg 44%
01:00 +26°C° 0 mm 0 m/S 642 mmHg 44%
02:00 +26°C° 0 mm 0 m/S 642 mmHg 44%
03:00 +26°C° 0 mm 0 m/S 641 mmHg 43%
04:00 +25°C° 0 mm 0 m/S 642 mmHg 43%
05:00 +25°C° 0 mm 0 m/S 642 mmHg 43%
06:00 +25°C° 0 mm 0 m/S 642 mmHg 43%
07:00 +28°C° 0 mm 1 m/S 642 mmHg 38%
08:00 +30°C° 0 mm 1 m/S 643 mmHg 33%
09:00 +31°C° 0 mm 1 m/S 644 mmHg 28%
10:00 +32°C° 0 mm 2 m/S 644 mmHg 27%
11:00 +34°C° 0 mm 3 m/S 644 mmHg 26%
12:00 +35°C° 0 mm 3 m/S 644 mmHg 25%
13:00 +35°C° 0 mm 4 m/S 644 mmHg 26%
14:00 +35°C° 0 mm 4 m/S 644 mmHg 27%
15:00 +35°C° 0 mm 5 m/S 643 mmHg 28%
16:00 +34°C° 0 mm 4 m/S 643 mmHg 31%
17:00 +33°C° 0 mm 4 m/S 643 mmHg 33%
18:00 +31°C° 0 mm 3 m/S 643 mmHg 36%
19:00 +30°C° 0 mm 2 m/S 643 mmHg 37%
20:00 +30°C° 0 mm 1 m/S 643 mmHg 39%
21:00 +29°C° 0 mm 1 m/S 643 mmHg 41%
22:00 +27°C° 0 mm 0 m/S 643 mmHg 41%
23:00 +27°C° 0 mm 0 m/S 643 mmHg 41%
Mehr zeigen

Wir brauchen deine Erlaubnis

Meteoprog und unser Service Anbieter werden persönliche Daten aufbewahren, so wie Cookies, Geräte Bezeichnung oder ähnliche Technologien von deinem Gerät und Prozess, so wie Persönliche Daten Inhalte und Werbungen, genauso wie social Media und den Verkehr zu analysieren.

  • Aufbewahrung und/oder Zugang zu deiner Geräte Informationen.

    Cookies, Geräte Bezeichnung oder andere Informationen, können aufbewahrt oder Zugang zu deinem Gerät erhalten, für den Grund, der oben angegeben wird.

  • Personalisierte Werbung und Inhalte, Messungen, Einblick in das Publikum und Produkt Entwicklung.

    Werbungen und Inhalte können personalisiert werden, basierend auf ein Profil. Mehr Daten können besser personalisierte Werbungen und Inhalte hinzufügen. Werbung und Inhalte können gezeigt und gemessen werden. Einblicke über das Publikum, welche die Werbung gesehen haben und den Inhalt, können abgeleitet werden. So wie Daten können genutzt werden, um es zu verbessern oder die Benutzer Erfahrung zu verbessern das System und die Software.

Wenn du “Ich stimme zu” klickst, erlaubst du uns, die Cookies zu benutzen die Geräte Bezeichnung, den Web oder ähnliche Technologien zu benutzen. Deine Settings, können in deinem Gerät bei deinem Browser geändert werden.

Für den bestimmten Zweck, berechtigten Interessen beruhen darauf, mehr als auf den Inhalt. Du kannst mehr darüber in unseren Privaten und Cookie Politik lesen.